Location: Bamobli
(6.6379°N, 10.9396°W)
Time: 04:14:35
(UTC+00:00)

Atlas Centaur 2 - Pass Details

Date: 10 October 2020
Orbit: 459 x 1310 km, 30.4° (Epoch: 21 October)

Event Time Altitude Azimuth Distance (km) Brightness Sun altitude
Rises 20:09:10 0° 212° (SSW) 4,213 6.3 -25.2°
Reaches altitude 10° 20:13:08 10° 197° (SSW) 3,150 5.4 -26.2°
Enters shadow 20:18:17 20° 156° (SSE) 2,299 4.2 -27.4°
